Wetterdaten: Donnerstag, 09.07.2015
Datum Zeit Temp. A. Feuchte A. Luftdruck Regen Wind Richtung Richtung Sonnenschein ET UV Solar Taupunkt Windchill Windben Empfang
09.07.2015 00:00 14,7 C 93 % 1013,5 hPa 0,0 l/m 0,4 km/h (0 Bft) N-NO 17 0 min 0,000 mm 0,0 UV-I 0 W/m 13,6 C 14,7 C 4,0 km/h (1 Bft) 0,00 %
09.07.2015 00:05 14,6 C 92 % 1013,5 hPa 0,0 l/m 0,0 km/h (0 Bft) N 350 0 min 0,000 mm 0,0 UV-I 0 W/m 13,3 C 14,6 C 0,0 km/h (0 Bft) 0,00 %
09.07.2015 00:10 14,5 C 93 % 1013,5 hPa 0,0 l/m 0,0 km/h (0 Bft) NO 50 0 min 0,000 mm 0,0 UV-I 0 W/m 13,4 C 14,5 C 0,0 km/h (0 Bft) 0,00 %
09.07.2015 00:15 14,5 C 93 % 1013,6 hPa 0,0 l/m 0,0 km/h (0 Bft) O-NO 63 0 min 0,000 mm 0,0 UV-I 0 W/m 13,4 C 14,5 C 0,0 km/h (0 Bft) 0,00 %
09.07.2015 00:20 14,5 C 93 % 1013,3 hPa 0,0 l/m 0,0 km/h (0 Bft) O-NO 68 0 min 0,000 mm 0,0 UV-I 0 W/m 13,4 C 14,5 C 0,0 km/h (0 Bft) 0,00 %
09.07.2015 00:25 14,4 C 93 % 1013,7 hPa 0,0 l/m 0,0 km/h (0 Bft) NO 43 0 min 0,000 mm 0,0 UV-I 0 W/m 13,3 C 14,4 C 0,0 km/h (0 Bft) 0,00 %
09.07.2015 00:30 14,4 C 93 % 1013,6 hPa 0,0 l/m 0,0 km/h (0 Bft) N 351 0 min 0,000 mm 0,0 UV-I 0 W/m 13,3 C 14,4 C 0,0 km/h (0 Bft) 0,00 %
09.07.2015 00:35 14,4 C 93 % 1013,5 hPa 0,0 l/m 0,7 km/h (0 Bft) W-SW 251 0 min 0,000 mm 0,0 UV-I 0 W/m 13,3 C 14,4 C 4,0 km/h (1 Bft) 0,00 %
09.07.2015 00:40 14,4 C 93 % 1013,6 hPa 0,0 l/m 0,0 km/h (0 Bft) N-NO 27 0 min 0,000 mm 0,0 UV-I 0 W/m 13,3 C 14,4 C 0,0 km/h (0 Bft) 0,00 %
09.07.2015 00:45 14,4 C 93 % 1013,5 hPa 0,0 l/m 0,0 km/h (0 Bft) O-NO 59 0 min 0,000 mm 0,0 UV-I 0 W/m 13,3 C 14,4 C 0,0 km/h (0 Bft) 0,00 %
09.07.2015 00:50 14,4 C 93 % 1013,6 hPa 0,0 l/m 0,4 km/h (0 Bft) NO 37 0 min 0,000 mm 0,0 UV-I 0 W/m 13,3 C 14,4 C 4,0 km/h (1 Bft) 0,00 %
09.07.2015 00:55 14,4 C 93 % 1013,6 hPa 0,0 l/m 0,4 km/h (0 Bft) NW 308 0 min 0,000 mm 0,0 UV-I 0 W/m 13,3 C 14,4 C 4,0 km/h (1 Bft) 0,00 %
09.07.2015 01:00 14,4 C 93 % 1013,5 hPa 0,0 l/m 0,0 km/h (0 Bft) O 84 0 min 0,000 mm 0,0 UV-I 0 W/m 13,3 C 14,4 C 0,0 km/h (0 Bft) 0,00 %
09.07.2015 01:05 14,6 C 93 % 1013,6 hPa 0,0 l/m 0,0 km/h (0 Bft) NW 326 0 min 0,000 mm 0,0 UV-I 0 W/m 13,5 C 14,6 C 0,0 km/h (0 Bft) 0,00 %
09.07.2015 01:10 14,7 C 93 % 1013,5 hPa 0,0 l/m 1,8 km/h (1 Bft) W 265 0 min 0,000 mm 0,0 UV-I 0 W/m 13,6 C 14,7 C 4,0 km/h (1 Bft) 0,00 %
09.07.2015 01:15 14,9 C 92 % 1013,6 hPa 0,0 l/m 5,8 km/h (2 Bft) W-SW 256 0 min 0,000 mm 0,0 UV-I 0 W/m 13,6 C 14,9 C 7,9 km/h (2 Bft) 0,00 %
09.07.2015 01:20 15,0 C 91 % 1013,6 hPa 0,0 l/m 0,0 km/h (0 Bft) NO 44 0 min 0,000 mm 0,0 UV-I 0 W/m 13,5 C 15,0 C 0,0 km/h (0 Bft) 0,00 %
09.07.2015 01:25 15,1 C 91 % 1013,6 hPa 0,0 l/m 0,0 km/h (0 Bft) NO 50 0 min 0,000 mm 0,0 UV-I 0 W/m 13,6 C 15,1 C 0,0 km/h (0 Bft) 0,00 %
09.07.2015 01:30 15,2 C 90 % 1013,6 hPa 0,0 l/m 0,0 km/h (0 Bft) N 0 0 min 0,000 mm 0,0 UV-I 0 W/m 13,6 C 15,2 C 0,0 km/h (0 Bft) 0,00 %
09.07.2015 01:35 15,2 C 90 % 1013,6 hPa 0,0 l/m 0,0 km/h (0 Bft) N 351 0 min 0,000 mm 0,0 UV-I 0 W/m 13,6 C 15,2 C 0,0 km/h (0 Bft) 0,00 %
09.07.2015 01:40 15,3 C 90 % 1013,4 hPa 0,0 l/m 0,0 km/h (0 Bft) O-SO 116 0 min 0,000 mm 0,0 UV-I 0 W/m 13,7 C 15,3 C 0,0 km/h (0 Bft) 0,00 %
09.07.2015 01:45 15,3 C 90 % 1013,6 hPa 0,0 l/m 0,7 km/h (0 Bft) NW 317 0 min 0,000 mm 0,0 UV-I 0 W/m 13,7 C 15,3 C 4,0 km/h (1 Bft) 0,00 %
09.07.2015 01:50 15,3 C 90 % 1013,5 hPa 0,0 l/m 0,4 km/h (0 Bft) NW 322 0 min 0,000 mm 0,0 UV-I 0 W/m 13,7 C 15,3 C 4,0 km/h (1 Bft) 0,00 %
09.07.2015 01:55 15,4 C 90 % 1013,5 hPa 0,0 l/m 0,7 km/h (0 Bft) NW 325 0 min 0,000 mm 0,0 UV-I 0 W/m 13,8 C 15,4 C 4,0 km/h (1 Bft) 0,00 %
09.07.2015 02:00 15,4 C 89 % 1013,5 hPa 0,0 l/m 2,2 km/h (1 Bft) W-SW 258 0 min 0,000 mm 0,0 UV-I 0 W/m 13,6 C 15,4 C 7,9 km/h (2 Bft) 0,00 %
09.07.2015 02:05 15,4 C 88 % 1013,6 hPa 0,0 l/m 0,0 km/h (0 Bft) NO 36 0 min 0,000 mm 0,0 UV-I 0 W/m 13,4 C 15,4 C 0,0 km/h (0 Bft) 0,00 %
09.07.2015 02:10 15,4 C 87 % 1013,6 hPa 0,0 l/m 4,3 km/h (1 Bft) W-SW 256 0 min 0,000 mm 0,0 UV-I 0 W/m 13,2 C 15,4 C 7,9 km/h (2 Bft) 0,00 %
09.07.2015 02:15 15,4 C 87 % 1013,5 hPa 0,0 l/m 0,4 km/h (0 Bft) NO 34 0 min 0,000 mm 0,0 UV-I 0 W/m 13,2 C 15,4 C 4,0 km/h (1 Bft) 0,00 %
09.07.2015 02:20 15,3 C 87 % 1013,6 hPa 0,0 l/m 0,0 km/h (0 Bft) NO 37 0 min 0,000 mm 0,0 UV-I 0 W/m 13,1 C 15,3 C 0,0 km/h (0 Bft) 0,00 %
09.07.2015 02:25 15,2 C 87 % 1013,6 hPa 0,0 l/m 2,9 km/h (1 Bft) W 261 0 min 0,000 mm 0,0 UV-I 0 W/m 13,0 C 15,2 C 4,0 km/h (1 Bft) 0,00 %
09.07.2015 02:30 15,1 C 87 % 1013,6 hPa 0,0 l/m 0,4 km/h (0 Bft) N-NW 348 0 min 0,000 mm 0,0 UV-I 0 W/m 13,0 C 15,1 C 4,0 km/h (1 Bft) 0,00 %
09.07.2015 02:35 15,1 C 87 % 1013,7 hPa 0,0 l/m 0,4 km/h (0 Bft) W-SW 257 0 min 0,000 mm 0,0 UV-I 0 W/m 13,0 C 15,1 C 4,0 km/h (1 Bft) 0,00 %
09.07.2015 02:40 15,1 C 87 % 1013,7 hPa 0,0 l/m 0,0 km/h (0 Bft) O-NO 60 0 min 0,000 mm 0,0 UV-I 0 W/m 13,0 C 15,1 C 0,0 km/h (0 Bft) 0,00 %
09.07.2015 02:45 15,1 C 86 % 1013,7 hPa 0,0 l/m 2,2 km/h (1 Bft) W 264 0 min 0,000 mm 0,0 UV-I 0 W/m 12,8 C 15,1 C 4,0 km/h (1 Bft) 0,00 %
09.07.2015 02:50 15,1 C 85 % 1013,8 hPa 0,0 l/m 0,0 km/h (0 Bft) W 277 0 min 0,000 mm 0,0 UV-I 0 W/m 12,6 C 15,1 C 0,0 km/h (0 Bft) 0,00 %
09.07.2015 02:55 15,2 C 85 % 1013,5 hPa 0,0 l/m 0,0 km/h (0 Bft) W-NW 289 0 min 0,000 mm 0,0 UV-I 0 W/m 12,7 C 15,2 C 0,0 km/h (0 Bft) 0,00 %
09.07.2015 03:00 15,2 C 84 % 1013,6 hPa 0,0 l/m 0,0 km/h (0 Bft) N 353 0 min 0,000 mm 0,0 UV-I 0 W/m 12,5 C 15,2 C 0,0 km/h (0 Bft) 0,00 %
09.07.2015 03:05 15,1 C 84 % 1013,6 hPa 0,0 l/m 0,0 km/h (0 Bft) NW 323 0 min 0,000 mm 0,0 UV-I 0 W/m 12,4 C 15,1 C 0,0 km/h (0 Bft) 0,00 %
09.07.2015 03:10 15,0 C 82 % 1013,6 hPa 0,0 l/m 0,4 km/h (0 Bft) NW 304 0 min 0,000 mm 0,0 UV-I 0 W/m 12,0 C 15,0 C 4,0 km/h (1 Bft) 0,00 %
09.07.2015 03:15 15,0 C 81 % 1013,6 hPa 0,0 l/m 1,4 km/h (1 Bft) NW 323 0 min 0,000 mm 0,0 UV-I 0 W/m 11,8 C 15,0 C 4,0 km/h (1 Bft) 0,00 %
09.07.2015 03:20 15,0 C 81 % 1013,6 hPa 0,0 l/m 0,4 km/h (0 Bft) NO 45 0 min 0,000 mm 0,0 UV-I 0 W/m 11,8 C 15,0 C 4,0 km/h (1 Bft) 0,00 %
09.07.2015 03:25 15,0 C 81 % 1013,7 hPa 0,0 l/m 0,0 km/h (0 Bft) N-NW 345 0 min 0,000 mm 0,0 UV-I 0 W/m 11,8 C 15,0 C 0,0 km/h (0 Bft) 0,00 %
09.07.2015 03:30 14,9 C 83 % 1013,5 hPa 0,0 l/m 0,0 km/h (0 Bft) N-NO 30 0 min 0,000 mm 0,0 UV-I 0 W/m 12,0 C 14,9 C 0,0 km/h (0 Bft) 0,00 %
09.07.2015 03:35 14,9 C 82 % 1013,6 hPa 0,0 l/m 7,2 km/h (2 Bft) W-NW 287 0 min 0,000 mm 0,0 UV-I 0 W/m 11,9 C 14,4 C 11,9 km/h (2 Bft) 0,00 %
09.07.2015 03:40 14,9 C 81 % 1013,7 hPa 0,0 l/m 0,4 km/h (0 Bft) N-NO 29 0 min 0,000 mm 0,0 UV-I 0 W/m 11,7 C 14,9 C 4,0 km/h (1 Bft) 0,00 %
09.07.2015 03:45 15,0 C 81 % 1013,8 hPa 0,0 l/m 2,2 km/h (1 Bft) W 265 0 min 0,000 mm 0,0 UV-I 0 W/m 11,8 C 15,0 C 4,0 km/h (1 Bft) 0,00 %
09.07.2015 03:50 15,0 C 81 % 1013,8 hPa 0,0 l/m 0,4 km/h (0 Bft) NO 39 0 min 0,000 mm 0,0 UV-I 0 W/m 11,8 C 15,0 C 4,0 km/h (1 Bft) 0,00 %
09.07.2015 03:55 15,0 C 82 % 1013,6 hPa 0,0 l/m 4,3 km/h (1 Bft) W-NW 286 0 min 0,000 mm 0,0 UV-I 0 W/m 12,0 C 15,0 C 7,9 km/h (2 Bft) 0,00 %
09.07.2015 04:00 15,0 C 82 % 1013,7 hPa 0,0 l/m 0,0 km/h (0 Bft) NO 50 0 min 0,000 mm 0,0 UV-I 0 W/m 12,0 C 15,0 C 0,0 km/h (0 Bft) 0,00 %
09.07.2015 04:05 14,9 C 83 % 1013,9 hPa 0,0 l/m 2,2 km/h (1 Bft) W-SW 248 0 min 0,000 mm 0,0 UV-I 0 W/m 12,0 C 14,9 C 4,0 km/h (1 Bft) 0,00 %
09.07.2015 04:10 14,9 C 84 % 1013,9 hPa 0,0 l/m 0,4 km/h (0 Bft) N-NW 345 0 min 0,000 mm 0,0 UV-I 0 W/m 12,2 C 14,9 C 4,0 km/h (1 Bft) 0,00 %
09.07.2015 04:15 14,9 C 84 % 1014,0 hPa 0,0 l/m 3,2 km/h (1 Bft) W 274 0 min 0,000 mm 0,0 UV-I 0 W/m 12,2 C 14,9 C 4,0 km/h (1 Bft) 0,00 %
09.07.2015 04:20 14,9 C 84 % 1013,9 hPa 0,0 l/m 0,4 km/h (0 Bft) N-NW 328 0 min 0,000 mm 0,0 UV-I 0 W/m 12,2 C 14,9 C 4,0 km/h (1 Bft) 0,00 %
09.07.2015 04:25 14,9 C 83 % 1013,9 hPa 0,0 l/m 0,7 km/h (0 Bft) N-NO 15 0 min 0,000 mm 0,0 UV-I 0 W/m 12,0 C 14,9 C 4,0 km/h (1 Bft) 0,00 %
09.07.2015 04:30 14,9 C 83 % 1013,8 hPa 0,0 l/m 0,0 km/h (0 Bft) NO 37 0 min 0,000 mm 0,0 UV-I 0 W/m 12,0 C 14,9 C 0,0 km/h (0 Bft) 0,00 %
09.07.2015 04:35 14,9 C 83 % 1013,9 hPa 0,0 l/m 0,0 km/h (0 Bft) N-NW 342 0 min 0,000 mm 0,0 UV-I 0 W/m 12,0 C 14,9 C 0,0 km/h (0 Bft) 0,00 %
09.07.2015 04:40 14,9 C 82 % 1014,1 hPa 0,0 l/m 1,4 km/h (1 Bft) N-NW 339 0 min 0,000 mm 0,0 UV-I 0 W/m 11,9 C 14,9 C 4,0 km/h (1 Bft) 0,00 %
09.07.2015 04:45 14,8 C 83 % 1014,0 hPa 0,0 l/m 0,4 km/h (0 Bft) NW 320 0 min 0,000 mm 0,0 UV-I 0 W/m 11,9 C 14,8 C 4,0 km/h (1 Bft) 0,00 %
09.07.2015 04:50 14,7 C 83 % 1013,9 hPa 0,0 l/m 0,0 km/h (0 Bft) N-NO 30 0 min 0,000 mm 0,0 UV-I 0 W/m 11,8 C 14,7 C 0,0 km/h (0 Bft) 0,00 %
09.07.2015 04:55 14,7 C 83 % 1014,1 hPa 0,0 l/m 1,4 km/h (1 Bft) NO 42 0 min 0,000 mm 0,0 UV-I 0 W/m 11,8 C 14,7 C 4,0 km/h (1 Bft) 0,00 %
09.07.2015 05:00 14,5 C 84 % 1014,1 hPa 0,0 l/m 0,0 km/h (0 Bft) N 349 0 min 0,000 mm 0,0 UV-I 0 W/m 11,8 C 14,5 C 0,0 km/h (0 Bft) 0,00 %
09.07.2015 05:05 14,4 C 84 % 1014,3 hPa 0,0 l/m 0,0 km/h (0 Bft) N-NO 19 0 min 0,000 mm 0,0 UV-I 0 W/m 11,7 C 14,4 C 0,0 km/h (0 Bft) 0,00 %
09.07.2015 05:10 14,4 C 84 % 1014,3 hPa 0,0 l/m 0,4 km/h (0 Bft) N 353 0 min 0,000 mm 0,0 UV-I 0 W/m 11,7 C 14,4 C 4,0 km/h (1 Bft) 0,00 %
09.07.2015 05:15 14,3 C 83 % 1014,5 hPa 0,0 l/m 0,0 km/h (0 Bft) NO 40 0 min 0,000 mm 0,0 UV-I 0 W/m 11,5 C 14,3 C 0,0 km/h (0 Bft) 0,00 %
09.07.2015 05:20 14,3 C 82 % 1014,5 hPa 0,0 l/m 0,7 km/h (0 Bft) O-NO 64 0 min 0,000 mm 0,0 UV-I 0 W/m 11,3 C 14,3 C 4,0 km/h (1 Bft) 0,00 %
09.07.2015 05:25 14,3 C 82 % 1014,5 hPa 0,0 l/m 0,0 km/h (0 Bft) NO 34 0 min 0,000 mm 0,0 UV-I 0 W/m 11,3 C 14,3 C 0,0 km/h (0 Bft) 0,00 %
09.07.2015 05:30 14,4 C 82 % 1014,5 hPa 0,0 l/m 4,7 km/h (1 Bft) W-SW 256 0 min 0,000 mm 0,0 UV-I 0 W/m 11,4 C 14,4 C 7,9 km/h (2 Bft) 0,00 %
09.07.2015 05:35 14,4 C 81 % 1014,5 hPa 0,0 l/m 0,4 km/h (0 Bft) W-SW 249 0 min 0,000 mm 0,0 UV-I 1 W/m 11,2 C 14,4 C 4,0 km/h (1 Bft) 0,00 %
09.07.2015 05:40 14,4 C 81 % 1014,6 hPa 0,0 l/m 4,3 km/h (1 Bft) W-SW 255 0 min 0,000 mm 0,0 UV-I 4 W/m 11,2 C 14,4 C 7,9 km/h (2 Bft) 0,00 %
09.07.2015 05:45 14,5 C 81 % 1014,7 hPa 0,0 l/m 1,4 km/h (1 Bft) N-NW 337 0 min 0,000 mm 0,0 UV-I 9 W/m 11,3 C 14,5 C 4,0 km/h (1 Bft) 0,00 %
09.07.2015 05:50 14,6 C 81 % 1014,8 hPa 0,0 l/m 4,3 km/h (1 Bft) W-SW 256 0 min 0,000 mm 0,0 UV-I 16 W/m 11,4 C 14,6 C 7,9 km/h (2 Bft) 0,00 %
09.07.2015 05:55 14,6 C 81 % 1014,8 hPa 0,0 l/m 0,0 km/h (0 Bft) N-NO 28 0 min 0,000 mm 0,0 UV-I 21 W/m 11,4 C 14,6 C 0,0 km/h (0 Bft) 0,00 %
09.07.2015 06:00 14,6 C 81 % 1014,2 hPa 0,0 l/m 0,0 km/h (0 Bft) NO 55 0 min 0,000 mm 0,0 UV-I 21 W/m 11,4 C 14,6 C 0,0 km/h (0 Bft) 0,00 %
09.07.2015 06:05 14,7 C 81 % 1014,8 hPa 0,0 l/m 1,8 km/h (1 Bft) NW 313 0 min 0,000 mm 0,0 UV-I 43 W/m 11,5 C 14,7 C 4,0 km/h (1 Bft) 0,00 %
09.07.2015 06:10 14,8 C 81 % 1014,6 hPa 0,0 l/m 0,4 km/h (0 Bft) NO 44 0 min 0,000 mm 0,0 UV-I 44 W/m 11,6 C 14,8 C 4,0 km/h (1 Bft) 0,00 %
09.07.2015 06:15 14,8 C 81 % 1014,8 hPa 0,0 l/m 0,7 km/h (0 Bft) O 93 0 min 0,000 mm 0,0 UV-I 64 W/m 11,6 C 14,8 C 4,0 km/h (1 Bft) 0,00 %
09.07.2015 06:20 14,9 C 80 % 1014,4 hPa 0,0 l/m 0,0 km/h (0 Bft) N-NO 32 0 min 0,000 mm 0,0 UV-I 72 W/m 11,5 C 14,9 C 0,0 km/h (0 Bft) 0,00 %
09.07.2015 06:25 15,0 C 80 % 1014,7 hPa 0,0 l/m 0,0 km/h (0 Bft) NO 54 5 min 0,000 mm 0,0 UV-I 109 W/m 11,6 C 15,0 C 0,0 km/h (0 Bft) 0,00 %
09.07.2015 06:30 15,1 C 79 % 1014,7 hPa 0,0 l/m 0,7 km/h (0 Bft) NO 41 5 min 0,000 mm 0,0 UV-I 100 W/m 11,5 C 15,1 C 4,0 km/h (1 Bft) 0,00 %
09.07.2015 06:35 15,1 C 79 % 1014,3 hPa 0,0 l/m 0,4 km/h (0 Bft) N 355 5 min 0,000 mm 1,0 UV-I 130 W/m 11,5 C 15,1 C 4,0 km/h (1 Bft) 0,00 %
09.07.2015 06:40 15,3 C 77 % 1014,8 hPa 0,0 l/m 3,2 km/h (1 Bft) W-SW 255 5 min 0,000 mm 1,0 UV-I 120 W/m 11,3 C 15,3 C 7,9 km/h (2 Bft) 0,00 %
09.07.2015 06:45 15,6 C 77 % 1014,9 hPa 0,0 l/m 0,0 km/h (0 Bft) O-NO 65 5 min 0,000 mm 1,0 UV-I 136 W/m 11,6 C 15,6 C 0,0 km/h (0 Bft) 0,00 %
09.07.2015 06:50 15,5 C 78 % 1015,0 hPa 0,0 l/m 0,4 km/h (0 Bft) NO 42 0 min 0,000 mm 1,0 UV-I 125 W/m 11,7 C 15,5 C 4,0 km/h (1 Bft) 0,00 %
09.07.2015 06:55 15,4 C 79 % 1015,0 hPa 0,0 l/m 0,7 km/h (0 Bft) N 349 0 min 0,000 mm 1,0 UV-I 99 W/m 11,8 C 15,4 C 4,0 km/h (1 Bft) 0,00 %
09.07.2015 07:00 15,4 C 79 % 1014,5 hPa 0,0 l/m 0,7 km/h (0 Bft) N 352 0 min 0,000 mm 1,0 UV-I 127 W/m 11,8 C 15,4 C 4,0 km/h (1 Bft) 0,00 %
09.07.2015 07:05 15,7 C 75 % 1014,5 hPa 0,0 l/m 0,0 km/h (0 Bft) N-NW 331 5 min 0,000 mm 1,0 UV-I 308 W/m 11,3 C 15,7 C 0,0 km/h (0 Bft) 0,00 %
09.07.2015 07:10 16,1 C 74 % 1014,6 hPa 0,0 l/m 0,0 km/h (0 Bft) N-NO 27 5 min 0,000 mm 1,0 UV-I 163 W/m 11,5 C 16,1 C 0,0 km/h (0 Bft) 0,00 %
09.07.2015 07:15 16,2 C 74 % 1014,2 hPa 0,0 l/m 0,0 km/h (0 Bft) N-NO 17 5 min 0,000 mm 1,0 UV-I 363 W/m 11,6 C 16,2 C 0,0 km/h (0 Bft) 0,00 %
09.07.2015 07:20 16,2 C 73 % 1014,4 hPa 0,0 l/m 3,2 km/h (1 Bft) N-NW 346 5 min 0,000 mm 1,0 UV-I 202 W/m 11,4 C 16,2 C 7,9 km/h (2 Bft) 0,00 %
09.07.2015 07:25 16,4 C 71 % 1014,2 hPa 0,0 l/m 7,2 km/h (2 Bft) W-SW 252 5 min 0,000 mm 1,0 UV-I 342 W/m 11,1 C 16,0 C 11,9 km/h (2 Bft) 0,00 %
09.07.2015 07:30 16,5 C 71 % 1014,3 hPa 0,0 l/m 4,3 km/h (1 Bft) NW 318 5 min 0,000 mm 1,0 UV-I 277 W/m 11,2 C 16,5 C 7,9 km/h (2 Bft) 0,00 %
09.07.2015 07:35 16,7 C 70 % 1014,4 hPa 0,0 l/m 0,0 km/h (0 Bft) N 350 5 min 0,000 mm 1,0 UV-I 400 W/m 11,2 C 16,7 C 0,0 km/h (0 Bft) 0,00 %
09.07.2015 07:40 17,0 C 68 % 1015,4 hPa 0,0 l/m 4,3 km/h (1 Bft) W-NW 287 5 min 0,000 mm 1,0 UV-I 418 W/m 11,0 C 17,0 C 7,9 km/h (2 Bft) 0,00 %
09.07.2015 07:45 17,4 C 68 % 1015,2 hPa 0,0 l/m 2,2 km/h (1 Bft) S-SW 209 5 min 0,000 mm 1,0 UV-I 440 W/m 11,4 C 17,4 C 4,0 km/h (1 Bft) 0,00 %
09.07.2015 07:50 17,6 C 67 % 1015,2 hPa 0,0 l/m 5,8 km/h (2 Bft) W 266 5 min 0,000 mm 1,0 UV-I 472 W/m 11,4 C 17,6 C 7,9 km/h (2 Bft) 0,00 %
09.07.2015 07:55 17,6 C 66 % 1015,2 hPa 0,0 l/m 7,2 km/h (2 Bft) S 176 5 min 0,000 mm 1,0 UV-I 502 W/m 11,2 C 17,2 C 11,9 km/h (2 Bft) 0,00 %
09.07.2015 08:00 17,6 C 67 % 1015,1 hPa 0,0 l/m 1,8 km/h (1 Bft) NO 42 5 min 0,000 mm 1,0 UV-I 505 W/m 11,4 C 17,6 C 4,0 km/h (1 Bft) 0,00 %
09.07.2015 08:05 17,8 C 65 % 1015,1 hPa 0,0 l/m 9,4 km/h (2 Bft) W-NW 282 5 min 0,000 mm 1,0 UV-I 499 W/m 11,1 C 16,4 C 11,9 km/h (2 Bft) 0,00 %
09.07.2015 08:10 18,3 C 63 % 1014,9 hPa 0,0 l/m 3,2 km/h (1 Bft) N 350 5 min 0,000 mm 1,0 UV-I 520 W/m 11,1 C 18,3 C 4,0 km/h (1 Bft) 0,00 %
09.07.2015 08:15 18,7 C 63 % 1015,0 hPa 0,0 l/m 4,7 km/h (1 Bft) W-SW 255 5 min 0,000 mm 2,0 UV-I 518 W/m 11,5 C 18,7 C 7,9 km/h (2 Bft) 0,00 %
09.07.2015 08:20 18,7 C 63 % 1015,1 hPa 0,0 l/m 11,5 km/h (2 Bft) W-SW 256 5 min 0,000 mm 1,0 UV-I 503 W/m 11,5 C 16,7 C 15,8 km/h (3 Bft) 0,00 %
09.07.2015 08:25 18,8 C 62 % 1015,1 hPa 0,0 l/m 13,3 km/h (3 Bft) W-NW 286 5 min 0,000 mm 2,0 UV-I 467 W/m 11,4 C 16,3 C 19,8 km/h (3 Bft) 0,00 %
09.07.2015 08:30 18,7 C 61 % 1015,2 hPa 0,0 l/m 7,2 km/h (2 Bft) W-SW 256 5 min 0,000 mm 2,0 UV-I 464 W/m 11,0 C 18,3 C 11,9 km/h (2 Bft) 0,00 %
09.07.2015 08:35 18,7 C 61 % 1015,2 hPa 0,0 l/m 4,7 km/h (1 Bft) W-SW 256 5 min 0,000 mm 2,0 UV-I 491 W/m 11,0 C 18,7 C 7,9 km/h (2 Bft) 0,00 %
09.07.2015 08:40 18,8 C 62 % 1015,2 hPa 0,0 l/m 10,8 km/h (2 Bft) W-SW 256 5 min 0,000 mm 2,0 UV-I 524 W/m 11,4 C 17,0 C 15,8 km/h (3 Bft) 0,00 %
09.07.2015 08:45 18,9 C 61 % 1015,2 hPa 0,0 l/m 9,7 km/h (2 Bft) W-SW 256 5 min 0,000 mm 2,0 UV-I 595 W/m 11,2 C 17,5 C 11,9 km/h (2 Bft) 0,00 %
09.07.2015 08:50 18,9 C 61 % 1015,3 hPa 0,0 l/m 0,4 km/h (0 Bft) N-NO 24 5 min 0,000 mm 2,0 UV-I 425 W/m 11,2 C 18,9 C 4,0 km/h (1 Bft) 0,00 %
09.07.2015 08:55 19,2 C 60 % 1015,1 hPa 0,0 l/m 5,4 km/h (1 Bft) NW 320 5 min 0,000 mm 2,0 UV-I 364 W/m 11,2 C 19,2 C 7,9 km/h (2 Bft) 0,00 %
09.07.2015 09:00 19,6 C 60 % 1015,1 hPa 0,0 l/m 7,9 km/h (2 Bft) W-SW 256 5 min 0,000 mm 2,0 UV-I 435 W/m 11,6 C 19,0 C 11,9 km/h (2 Bft) 0,00 %
09.07.2015 09:05 19,9 C 55 % 1015,0 hPa 0,0 l/m 2,2 km/h (1 Bft) NW 314 5 min 0,000 mm 2,0 UV-I 416 W/m 10,6 C 19,9 C 4,0 km/h (1 Bft) 0,00 %
09.07.2015 09:10 20,1 C 55 % 1015,1 hPa 0,0 l/m 3,2 km/h (1 Bft) N 351 5 min 0,000 mm 2,0 UV-I 448 W/m 10,8 C 20,1 C 7,9 km/h (2 Bft) 0,00 %
09.07.2015 09:15 20,0 C 56 % 1015,1 hPa 0,0 l/m 6,8 km/h (2 Bft) N 350 5 min 0,000 mm 2,0 UV-I 345 W/m 11,0 C 19,8 C 7,9 km/h (2 Bft) 0,00 %
09.07.2015 09:20 19,7 C 57 % 1015,2 hPa 0,0 l/m 1,4 km/h (1 Bft) W 267 0 min 0,000 mm 2,0 UV-I 327 W/m 10,9 C 19,7 C 7,9 km/h (2 Bft) 0,00 %
09.07.2015 09:25 19,6 C 58 % 1015,3 hPa 0,0 l/m 5,4 km/h (1 Bft) W-SW 256 5 min 0,000 mm 2,0 UV-I 462 W/m 11,1 C 19,6 C 11,9 km/h (2 Bft) 0,00 %
09.07.2015 09:30 19,5 C 59 % 1015,2 hPa 0,0 l/m 0,0 km/h (0 Bft) N-NW 337 5 min 0,000 mm 2,0 UV-I 448 W/m 11,3 C 19,5 C 0,0 km/h (0 Bft) 0,00 %
09.07.2015 09:35 19,1 C 59 % 1015,4 hPa 0,0 l/m 2,2 km/h (1 Bft) N 349 5 min 0,000 mm 2,0 UV-I 364 W/m 10,9 C 19,1 C 4,0 km/h (1 Bft) 0,00 %
09.07.2015 09:40 18,8 C 57 % 1015,3 hPa 0,0 l/m 3,2 km/h (1 Bft) N-NW 328 5 min 0,000 mm 2,0 UV-I 515 W/m 10,1 C 18,8 C 7,9 km/h (2 Bft) 0,00 %
09.07.2015 09:45 18,8 C 57 % 1015,4 hPa 0,0 l/m 1,4 km/h (1 Bft) SW 232 5 min 0,000 mm 2,0 UV-I 375 W/m 10,1 C 18,8 C 4,0 km/h (1 Bft) 0,00 %
09.07.2015 09:50 18,9 C 57 % 1015,5 hPa 0,0 l/m 6,5 km/h (2 Bft) W-SW 256 5 min 0,000 mm 2,0 UV-I 450 W/m 10,2 C 18,9 C 7,9 km/h (2 Bft) 0,00 %
09.07.2015 09:55 19,0 C 56 % 1015,5 hPa 0,0 l/m 5,8 km/h (2 Bft) N 351 5 min 0,000 mm 2,0 UV-I 491 W/m 10,0 C 19,0 C 11,9 km/h (2 Bft) 0,00 %
09.07.2015 10:00 18,9 C 56 % 1015,4 hPa 0,0 l/m 9,0 km/h (2 Bft) W-NW 285 5 min 0,000 mm 2,0 UV-I 551 W/m 9,9 C 17,8 C 11,9 km/h (2 Bft) 0,00 %
09.07.2015 10:05 18,8 C 58 % 1015,4 hPa 0,0 l/m 4,0 km/h (1 Bft) NW 304 5 min 0,000 mm 2,0 UV-I 646 W/m 10,4 C 18,8 C 7,9 km/h (2 Bft) 0,00 %
09.07.2015 10:10 18,7 C 59 % 1015,3 hPa 0,0 l/m 0,4 km/h (0 Bft) O-NO 65 5 min 0,000 mm 2,0 UV-I 560 W/m 10,5 C 18,7 C 4,0 km/h (1 Bft) 0,00 %
09.07.2015 10:15 18,6 C 57 % 1015,2 hPa 0,0 l/m 4,0 km/h (1 Bft) NO 34 0 min 0,000 mm 3,0 UV-I 288 W/m 9,9 C 18,6 C 7,9 km/h (2 Bft) 0,00 %
09.07.2015 10:20 18,8 C 55 % 1015,3 hPa 0,0 l/m 0,0 km/h (0 Bft) NO 46 0 min 0,000 mm 3,0 UV-I 315 W/m 9,6 C 18,8 C 0,0 km/h (0 Bft) 0,00 %
09.07.2015 10:25 19,1 C 55 % 1015,2 hPa 0,0 l/m 3,2 km/h (1 Bft) W 263 0 min 0,000 mm 2,0 UV-I 204 W/m 9,8 C 19,1 C 7,9 km/h (2 Bft) 0,00 %
09.07.2015 10:30 19,3 C 53 % 1015,4 hPa 0,0 l/m 3,2 km/h (1 Bft) NW 320 0 min 0,000 mm 3,0 UV-I 153 W/m 9,5 C 19,3 C 7,9 km/h (2 Bft) 0,00 %
09.07.2015 10:35 19,6 C 52 % 1015,1 hPa 0,0 l/m 6,5 km/h (2 Bft) W 273 0 min 0,000 mm 3,0 UV-I 167 W/m 9,5 C 19,6 C 11,9 km/h (2 Bft) 0,00 %
09.07.2015 10:40 19,8 C 53 % 1015,0 hPa 0,0 l/m 1,8 km/h (1 Bft) O-NO 57 0 min 0,000 mm 2,0 UV-I 136 W/m 9,9 C 19,8 C 4,0 km/h (1 Bft) 0,00 %
09.07.2015 10:45 20,1 C 51 % 1014,9 hPa 0,0 l/m 0,0 km/h (0 Bft) N 354 0 min 0,000 mm 1,0 UV-I 259 W/m 9,6 C 20,1 C 0,0 km/h (0 Bft) 0,00 %
09.07.2015 10:50 20,0 C 55 % 1015,0 hPa 0,0 l/m 7,9 km/h (2 Bft) W-SW 257 0 min 0,000 mm 2,0 UV-I 376 W/m 10,7 C 19,4 C 11,9 km/h (2 Bft) 0,00 %
09.07.2015 10:55 19,6 C 56 % 1015,2 hPa 0,0 l/m 0,0 km/h (0 Bft) NO 56 0 min 0,000 mm 1,0 UV-I 427 W/m 10,6 C 19,6 C 0,0 km/h (0 Bft) 0,00 %
09.07.2015 11:00 19,5 C 54 % 1015,3 hPa 0,0 l/m 12,2 km/h (2 Bft) W-NW 291 5 min 0,000 mm 1,0 UV-I 506 W/m 9,9 C 17,4 C 15,8 km/h (3 Bft) 0,00 %
09.07.2015 11:05 19,3 C 58 % 1015,4 hPa 0,0 l/m 1,8 km/h (1 Bft) N 351 0 min 0,000 mm 1,0 UV-I 377 W/m 10,8 C 19,3 C 4,0 km/h (1 Bft) 0,00 %
09.07.2015 11:10 18,8 C 57 % 1015,3 hPa 0,0 l/m 0,4 km/h (0 Bft) NO 38 0 min 0,000 mm 1,0 UV-I 326 W/m 10,1 C 18,8 C 4,0 km/h (1 Bft) 0,00 %
09.07.2015 11:15 18,5 C 58 % 1015,4 hPa 0,0 l/m 2,2 km/h (1 Bft) W-SW 256 0 min 0,000 mm 0,0 UV-I 341 W/m 10,1 C 18,5 C 4,0 km/h (1 Bft) 0,00 %
09.07.2015 11:20 18,3 C 59 % 1015,6 hPa 0,0 l/m 5,8 km/h (2 Bft) W-SW 256 5 min 0,000 mm 2,0 UV-I 527 W/m 10,1 C 18,3 C 11,9 km/h (2 Bft) 0,00 %
09.07.2015 11:25 18,3 C 58 % 1015,5 hPa 0,0 l/m 0,4 km/h (0 Bft) NO 35 0 min 0,000 mm 2,0 UV-I 331 W/m 9,9 C 18,3 C 4,0 km/h (1 Bft) 0,00 %
09.07.2015 11:30 18,5 C 58 % 1015,3 hPa 0,0 l/m 5,8 km/h (2 Bft) W-SW 256 0 min 0,000 mm 2,0 UV-I 89 W/m 10,1 C 18,5 C 11,9 km/h (2 Bft) 0,00 %
09.07.2015 11:35 18,8 C 56 % 1015,5 hPa 0,0 l/m 5,8 km/h (2 Bft) O 85 0 min 0,000 mm 3,0 UV-I 92 W/m 9,8 C 18,8 C 11,9 km/h (2 Bft) 0,00 %
09.07.2015 11:40 19,1 C 54 % 1015,4 hPa 0,0 l/m 9,4 km/h (2 Bft) W-SW 256 0 min 0,000 mm 3,0 UV-I 101 W/m 9,6 C 17,9 C 11,9 km/h (2 Bft) 0,00 %
09.07.2015 11:45 19,3 C 53 % 1015,3 hPa 0,0 l/m 9,4 km/h (2 Bft) W-SW 256 0 min 0,000 mm 2,0 UV-I 122 W/m 9,5 C 18,1 C 11,9 km/h (2 Bft) 0,00 %
09.07.2015 11:50 19,5 C 53 % 1015,3 hPa 0,0 l/m 0,7 km/h (0 Bft) NO 54 0 min 0,000 mm 2,0 UV-I 179 W/m 9,7 C 19,5 C 4,0 km/h (1 Bft) 0,00 %
09.07.2015 11:55 19,5 C 53 % 1015,2 hPa 0,0 l/m 10,8 km/h (2 Bft) N-NW 346 0 min 0,000 mm 2,0 UV-I 236 W/m 9,7 C 17,8 C 11,9 km/h (2 Bft) 0,00 %
09.07.2015 12:00 19,3 C 52 % 1015,5 hPa 0,0 l/m 6,5 km/h (2 Bft) W-SW 252 0 min 0,000 mm 2,0 UV-I 233 W/m 9,2 C 19,3 C 19,8 km/h (3 Bft) 0,00 %
09.07.2015 12:05 19,2 C 53 % 1015,4 hPa 0,0 l/m 5,8 km/h (2 Bft) W 274 0 min 0,000 mm 3,0 UV-I 283 W/m 9,4 C 19,2 C 7,9 km/h (2 Bft) 0,00 %
09.07.2015 12:10 19,3 C 52 % 1015,5 hPa 0,0 l/m 7,9 km/h (2 Bft) W-SW 256 0 min 0,000 mm 2,0 UV-I 331 W/m 9,2 C 18,7 C 11,9 km/h (2 Bft) 0,00 %
09.07.2015 12:15 19,4 C 53 % 1015,6 hPa 0,0 l/m 7,2 km/h (2 Bft) N-NW 336 0 min 0,000 mm 1,0 UV-I 435 W/m 9,6 C 19,1 C 11,9 km/h (2 Bft) 0,00 %
09.07.2015 12:20 18,6 C 54 % 1016,4 hPa 0,0 l/m 0,4 km/h (0 Bft) NO 45 5 min 0,000 mm 0,0 UV-I 566 W/m 9,1 C 18,6 C 4,0 km/h (1 Bft) 0,00 %
09.07.2015 12:25 17,2 C 60 % 1016,6 hPa 0,0 l/m 7,2 km/h (2 Bft) W-NW 283 5 min 0,000 mm 1,0 UV-I 918 W/m 9,4 C 16,8 C 11,9 km/h (2 Bft) 0,00 %
09.07.2015 12:30 15,9 C 70 % 1016,8 hPa 0,0 l/m 1,4 km/h (1 Bft) N 357 5 min 0,000 mm 1,0 UV-I 1047 W/m 10,4 C 15,9 C 7,9 km/h (2 Bft) 0,00 %
09.07.2015 12:35 14,9 C 74 % 1016,9 hPa 0,0 l/m 5,4 km/h (1 Bft) W-NW 289 5 min 0,000 mm 1,0 UV-I 534 W/m 10,3 C 14,9 C 7,9 km/h (2 Bft) 0,00 %
09.07.2015 12:40 14,3 C 75 % 1016,6 hPa 0,0 l/m 0,0 km/h (0 Bft) O 86 0 min 0,000 mm 1,0 UV-I 445 W/m 9,9 C 14,3 C 0,0 km/h (0 Bft) 0,00 %
09.07.2015 12:45 14,2 C 75 % 1016,4 hPa 0,0 l/m 0,4 km/h (0 Bft) NO 43 5 min 0,000 mm 1,0 UV-I 699 W/m 9,8 C 14,2 C 4,0 km/h (1 Bft) 0,00 %
09.07.2015 12:50 14,3 C 75 % 1016,6 hPa 0,0 l/m 2,9 km/h (1 Bft) NW 322 5 min 0,000 mm 1,0 UV-I 867 W/m 9,9 C 14,3 C 4,0 km/h (1 Bft) 0,00 %
09.07.2015 12:55 14,6 C 73 % 1016,6 hPa 0,0 l/m 0,4 km/h (0 Bft) N 353 0 min 0,000 mm 2,0 UV-I 395 W/m 9,8 C 14,6 C 4,0 km/h (1 Bft) 0,00 %
09.07.2015 13:00 15,0 C 73 % 1016,4 hPa 0,0 l/m 0,0 km/h (0 Bft) N 350 5 min 0,000 mm 2,0 UV-I 601 W/m 10,2 C 15,0 C 0,0 km/h (0 Bft) 0,00 %
09.07.2015 13:05 15,4 C 69 % 1016,2 hPa 0,0 l/m 0,0 km/h (0 Bft) N-NO 29 0 min 0,000 mm 2,0 UV-I 452 W/m 9,7 C 15,4 C 0,0 km/h (0 Bft) 0,00 %
09.07.2015 13:10 16,0 C 68 % 1016,1 hPa 0,0 l/m 4,0 km/h (1 Bft) W 275 5 min 0,000 mm 3,0 UV-I 948 W/m 10,1 C 16,0 C 7,9 km/h (2 Bft) 0,00 %
09.07.2015 13:15 16,7 C 63 % 1015,8 hPa 0,0 l/m 6,5 km/h (2 Bft) W 263 5 min 0,000 mm 4,0 UV-I 987 W/m 9,6 C 16,7 C 7,9 km/h (2 Bft) 0,00 %
09.07.2015 13:20 17,7 C 61 % 1015,8 hPa 0,0 l/m 3,2 km/h (1 Bft) NO 34 0 min 0,000 mm 6,0 UV-I 441 W/m 10,1 C 17,7 C 4,0 km/h (1 Bft) 0,00 %
09.07.2015 13:25 18,7 C 57 % 1015,6 hPa 0,0 l/m 4,3 km/h (1 Bft) W-SW 256 5 min 0,000 mm 4,0 UV-I 1016 W/m 10,0 C 18,7 C 7,9 km/h (2 Bft) 0,00 %
09.07.2015 13:30 19,2 C 58 % 1015,4 hPa 0,0 l/m 4,0 km/h (1 Bft) S 183 5 min 0,000 mm 4,0 UV-I 1021 W/m 10,7 C 19,2 C 7,9 km/h (2 Bft) 0,00 %
09.07.2015 13:35 19,3 C 55 % 1015,4 hPa 0,0 l/m 11,5 km/h (2 Bft) NW 307 5 min 0,000 mm 4,0 UV-I 1053 W/m 10,0 C 17,4 C 15,8 km/h (3 Bft) 0,00 %
09.07.2015 13:40 19,5 C 56 % 1015,5 hPa 0,0 l/m 0,4 km/h (0 Bft) N-NO 29 5 min 0,000 mm 5,0 UV-I 954 W/m 10,5 C 19,5 C 4,0 km/h (1 Bft) 0,00 %
09.07.2015 13:45 19,7 C 57 % 1015,3 hPa 0,0 l/m 0,4 km/h (0 Bft) N-NO 22 5 min 0,000 mm 3,0 UV-I 1023 W/m 10,9 C 19,7 C 4,0 km/h (1 Bft) 0,00 %
09.07.2015 13:50 20,2 C 53 % 1015,1 hPa 0,0 l/m 2,9 km/h (1 Bft) N-NW 348 5 min 0,000 mm 5,0 UV-I 535 W/m 10,3 C 20,2 C 4,0 km/h (1 Bft) 0,00 %
09.07.2015 13:55 20,6 C 54 % 1015,0 hPa 0,0 l/m 0,4 km/h (0 Bft) SW 216 0 min 0,000 mm 5,0 UV-I 248 W/m 11,0 C 20,6 C 4,0 km/h (1 Bft) 0,00 %
09.07.2015 14:00 20,7 C 52 % 1014,9 hPa 0,0 l/m 6,5 km/h (2 Bft) SO 136 0 min 0,000 mm 5,0 UV-I 107 W/m 10,5 C 20,7 C 11,9 km/h (2 Bft) 0,00 %
09.07.2015 14:05 20,7 C 49 % 1015,0 hPa 0,0 l/m 5,8 km/h (2 Bft) SW 223 0 min 0,000 mm 5,0 UV-I 101 W/m 9,6 C 20,7 C 11,9 km/h (2 Bft) 0,00 %
09.07.2015 14:10 20,7 C 50 % 1015,1 hPa 0,0 l/m 6,8 km/h (2 Bft) W-NW 285 0 min 0,000 mm 2,0 UV-I 332 W/m 9,9 C 20,5 C 7,9 km/h (2 Bft) 0,00 %
09.07.2015 14:15 20,4 C 55 % 1014,7 hPa 0,0 l/m 2,9 km/h (1 Bft) N 357 5 min 0,000 mm 4,0 UV-I 806 W/m 11,1 C 20,4 C 4,0 km/h (1 Bft) 0,00 %
09.07.2015 14:20 20,4 C 54 % 1014,7 hPa 0,0 l/m 11,9 km/h (2 Bft) SW 227 0 min 0,000 mm 3,0 UV-I 396 W/m 10,8 C 18,5 C 15,8 km/h (3 Bft) 0,00 %
09.07.2015 14:25 20,6 C 53 % 1014,8 hPa 0,0 l/m 1,8 km/h (1 Bft) W-SW 256 5 min 0,000 mm 4,0 UV-I 522 W/m 10,7 C 20,6 C 4,0 km/h (1 Bft) 0,00 %
09.07.2015 14:30 20,6 C 53 % 1014,9 hPa 0,0 l/m 1,4 km/h (1 Bft) W-NW 282 0 min 0,000 mm 5,0 UV-I 340 W/m 10,7 C 20,6 C 4,0 km/h (1 Bft) 0,00 %
09.07.2015 14:35 20,8 C 52 % 1014,9 hPa 0,0 l/m 5,8 km/h (2 Bft) O 91 0 min 0,000 mm 4,0 UV-I 231 W/m 10,6 C 20,8 C 11,9 km/h (2 Bft) 0,00 %
09.07.2015 14:40 21,2 C 49 % 1014,8 hPa 0,0 l/m 0,4 km/h (0 Bft) N-NO 26 0 min 0,000 mm 3,0 UV-I 364 W/m 10,1 C 21,2 C 4,0 km/h (1 Bft) 0,00 %
09.07.2015 14:45 21,2 C 52 % 1014,8 hPa 0,0 l/m 2,2 km/h (1 Bft) W-NW 283 0 min 0,000 mm 2,0 UV-I 375 W/m 10,9 C 21,2 C 4,0 km/h (1 Bft) 0,00 %
09.07.2015 14:50 20,5 C 54 % 1014,8 hPa 0,0 l/m 1,8 km/h (1 Bft) N-NW 346 0 min 0,000 mm 1,0 UV-I 427 W/m 10,9 C 20,5 C 4,0 km/h (1 Bft) 0,00 %
09.07.2015 14:55 19,6 C 61 % 1015,3 hPa 0,0 l/m 6,8 km/h (2 Bft) W-SW 256 0 min 0,000 mm 0,0 UV-I 234 W/m 11,9 C 19,4 C 11,9 km/h (2 Bft) 0,00 %
09.07.2015 15:00 18,7 C 71 % 1015,6 hPa 0,3 l/m 4,0 km/h (1 Bft) NO 40 0 min 0,000 mm 1,0 UV-I 202 W/m 13,3 C 18,7 C 7,9 km/h (2 Bft) 0,00 %
09.07.2015 15:05 17,6 C 77 % 1015,9 hPa 0,0 l/m 1,4 km/h (1 Bft) W 260 0 min 0,000 mm 3,0 UV-I 184 W/m 13,5 C 17,6 C 4,0 km/h (1 Bft) 0,00 %
09.07.2015 15:10 17,4 C 77 % 1015,8 hPa 0,0 l/m 2,2 km/h (1 Bft) N 355 0 min 0,000 mm 2,0 UV-I 170 W/m 13,3 C 17,4 C 4,0 km/h (1 Bft) 0,00 %
09.07.2015 15:15 18,0 C 70 % 1015,5 hPa 0,0 l/m 6,8 km/h (2 Bft) W-NW 299 0 min 0,000 mm 4,0 UV-I 118 W/m 12,4 C 17,8 C 11,9 km/h (2 Bft) 0,00 %
09.07.2015 15:20 18,7 C 65 % 1016,0 hPa 0,0 l/m 11,9 km/h (2 Bft) W-SW 256 0 min 0,000 mm 2,0 UV-I 134 W/m 12,0 C 16,6 C 24,1 km/h (4 Bft) 0,00 %
09.07.2015 15:25 19,1 C 64 % 1016,1 hPa 0,0 l/m 8,3 km/h (2 Bft) S 188 0 min 0,000 mm 1,0 UV-I 186 W/m 12,1 C 18,3 C 11,9 km/h (2 Bft) 0,00 %
09.07.2015 15:30 18,5 C 66 % 1016,5 hPa 0,0 l/m 4,3 km/h (1 Bft) S 187 0 min 0,000 mm 2,0 UV-I 321 W/m 12,0 C 18,5 C 11,9 km/h (2 Bft) 0,00 %
09.07.2015 15:35 17,7 C 67 % 1016,6 hPa 0,0 l/m 1,8 km/h (1 Bft) W-SW 256 0 min 0,000 mm 2,0 UV-I 357 W/m 11,5 C 17,7 C 4,0 km/h (1 Bft) 0,00 %
09.07.2015 15:40 17,6 C 66 % 1016,8 hPa 0,0 l/m 3,2 km/h (1 Bft) W 259 0 min 0,000 mm 3,0 UV-I 359 W/m 11,2 C 17,6 C 4,0 km/h (1 Bft) 0,00 %
09.07.2015 15:45 17,5 C 65 % 1017,1 hPa 0,0 l/m 6,5 km/h (2 Bft) N 352 0 min 0,000 mm 2,0 UV-I 275 W/m 10,8 C 17,5 C 11,9 km/h (2 Bft) 0,00 %
09.07.2015 15:50 17,1 C 67 % 1017,3 hPa 0,0 l/m 0,7 km/h (0 Bft) N-NW 336 0 min 0,000 mm 1,0 UV-I 242 W/m 10,9 C 17,1 C 4,0 km/h (1 Bft) 0,00 %
09.07.2015 15:55 16,5 C 68 % 1017,4 hPa 0,0 l/m 10,4 km/h (2 Bft) N-NW 329 0 min 0,000 mm 1,0 UV-I 238 W/m 10,6 C 14,6 C 11,9 km/h (2 Bft) 0,00 %
09.07.2015 16:00 16,0 C 71 % 1017,5 hPa 0,0 l/m 18,4 km/h (3 Bft) S-SW 203 0 min 0,000 mm 1,0 UV-I 150 W/m 10,7 C 11,4 C 24,1 km/h (4 Bft) 0,00 %
09.07.2015 16:05 15,7 C 73 % 1017,4 hPa 0,0 l/m 2,2 km/h (1 Bft) N 349 0 min 0,000 mm 1,0 UV-I 120 W/m 10,9 C 15,7 C 4,0 km/h (1 Bft) 0,00 %
09.07.2015 16:10 15,4 C 75 % 1017,5 hPa 0,0 l/m 0,4 km/h (0 Bft) W 277 0 min 0,000 mm 1,0 UV-I 112 W/m 11,0 C 15,4 C 4,0 km/h (1 Bft) 0,00 %
09.07.2015 16:15 15,2 C 76 % 1017,4 hPa 0,0 l/m 4,7 km/h (1 Bft) W-SW 256 0 min 0,000 mm 1,0 UV-I 76 W/m 11,0 C 15,2 C 7,9 km/h (2 Bft) 0,00 %
09.07.2015 16:20 15,2 C 76 % 1017,4 hPa 0,0 l/m 0,4 km/h (0 Bft) N 350 0 min 0,000 mm 1,0 UV-I 101 W/m 11,0 C 15,2 C 4,0 km/h (1 Bft) 0,00 %
09.07.2015 16:25 15,2 C 75 % 1017,7 hPa 0,0 l/m 2,9 km/h (1 Bft) NW 309 0 min 0,000 mm 2,0 UV-I 89 W/m 10,8 C 15,2 C 4,0 km/h (1 Bft) 0,00 %
09.07.2015 16:30 15,5 C 72 % 1017,7 hPa 0,0 l/m 11,9 km/h (2 Bft) SW 222 0 min 0,000 mm 2,0 UV-I 87 W/m 10,5 C 12,9 C 19,8 km/h (3 Bft) 0,00 %
09.07.2015 16:35 16,0 C 70 % 1017,5 hPa 0,0 l/m 7,2 km/h (2 Bft) W-SW 255 0 min 0,000 mm 2,0 UV-I 124 W/m 10,5 C 15,6 C 7,9 km/h (2 Bft) 0,00 %
09.07.2015 16:40 16,3 C 69 % 1017,4 hPa 0,0 l/m 0,7 km/h (0 Bft) O 96 0 min 0,000 mm 1,0 UV-I 149 W/m 10,6 C 16,3 C 4,0 km/h (1 Bft) 0,00 %
09.07.2015 16:45 16,4 C 68 % 1017,5 hPa 0,0 l/m 0,0 km/h (0 Bft) O-NO 72 0 min 0,000 mm 2,0 UV-I 197 W/m 10,5 C 16,4 C 0,0 km/h (0 Bft) 0,00 %
09.07.2015 16:50 16,5 C 68 % 1017,5 hPa 0,0 l/m 0,7 km/h (0 Bft) SW 221 0 min 0,000 mm 1,0 UV-I 196 W/m 10,6 C 16,5 C 4,0 km/h (1 Bft) 0,00 %
09.07.2015 16:55 16,5 C 69 % 1017,5 hPa 0,0 l/m 0,4 km/h (0 Bft) O-NO 70 0 min 0,000 mm 1,0 UV-I 176 W/m 10,8 C 16,5 C 4,0 km/h (1 Bft) 0,00 %
09.07.2015 17:00 16,5 C 70 % 1017,5 hPa 0,0 l/m 4,3 km/h (1 Bft) N-NW 346 0 min 0,000 mm 1,0 UV-I 186 W/m 11,0 C 16,5 C 7,9 km/h (2 Bft) 0,00 %
09.07.2015 17:05 16,5 C 69 % 1017,6 hPa 0,0 l/m 1,4 km/h (1 Bft) SW 230 0 min 0,000 mm 1,0 UV-I 221 W/m 10,8 C 16,5 C 4,0 km/h (1 Bft) 0,00 %
09.07.2015 17:10 16,4 C 70 % 1017,7 hPa 0,0 l/m 1,4 km/h (1 Bft) W 276 0 min 0,000 mm 1,0 UV-I 136 W/m 10,9 C 16,4 C 4,0 km/h (1 Bft) 0,00 %
09.07.2015 17:15 16,3 C 70 % 1017,8 hPa 0,0 l/m 0,0 km/h (0 Bft) NO 36 0 min 0,000 mm 0,0 UV-I 38 W/m 10,8 C 16,3 C 0,0 km/h (0 Bft) 0,00 %
09.07.2015 17:20 16,2 C 71 % 1017,6 hPa 0,0 l/m 4,0 km/h (1 Bft) N-NW 343 0 min 0,000 mm 1,0 UV-I 5 W/m 10,9 C 16,2 C 7,9 km/h (2 Bft) 0,00 %
09.07.2015 17:25 16,1 C 70 % 1017,5 hPa 0,0 l/m 1,4 km/h (1 Bft) NW 317 0 min 0,000 mm 1,0 UV-I 32 W/m 10,6 C 16,1 C 4,0 km/h (1 Bft) 0,00 %
09.07.2015 17:30 16,0 C 71 % 1017,4 hPa 0,0 l/m 0,0 km/h (0 Bft) N 351 0 min 0,000 mm 1,0 UV-I 37 W/m 10,7 C 16,0 C 0,0 km/h (0 Bft) 0,00 %
09.07.2015 17:35 16,0 C 73 % 1017,4 hPa 0,0 l/m 0,0 km/h (0 Bft) NO 50 0 min 0,000 mm 1,0 UV-I 49 W/m 11,2 C 16,0 C 0,0 km/h (0 Bft) 0,00 %
09.07.2015 17:40 15,9 C 73 % 1017,5 hPa 0,0 l/m 0,0 km/h (0 Bft) W-NW 286 0 min 0,000 mm 1,0 UV-I 47 W/m 11,1 C 15,9 C 0,0 km/h (0 Bft) 0,00 %
09.07.2015 17:45 15,9 C 71 % 1017,4 hPa 0,0 l/m 1,8 km/h (1 Bft) N 349 0 min 0,000 mm 1,0 UV-I 70 W/m 10,6 C 15,9 C 4,0 km/h (1 Bft) 0,00 %
09.07.2015 17:50 15,9 C 71 % 1017,3 hPa 0,0 l/m 2,2 km/h (1 Bft) NW 319 0 min 0,000 mm 1,0 UV-I 115 W/m 10,6 C 15,9 C 4,0 km/h (1 Bft) 0,00 %
09.07.2015 17:55 16,1 C 70 % 1017,5 hPa 0,0 l/m 0,7 km/h (0 Bft) W-SW 251 0 min 0,000 mm 1,0 UV-I 163 W/m 10,6 C 16,1 C 4,0 km/h (1 Bft) 0,00 %
09.07.2015 18:00 16,3 C 70 % 1017,7 hPa 0,0 l/m 0,0 km/h (0 Bft) N-NO 23 0 min 0,000 mm 1,0 UV-I 111 W/m 10,8 C 16,3 C 0,0 km/h (0 Bft) 0,00 %
09.07.2015 18:05 16,4 C 69 % 1017,8 hPa 0,0 l/m 0,7 km/h (0 Bft) N 357 5 min 0,000 mm 1,0 UV-I 332 W/m 10,7 C 16,4 C 4,0 km/h (1 Bft) 0,00 %
09.07.2015 18:10 16,5 C 68 % 1017,7 hPa 0,0 l/m 0,0 km/h (0 Bft) N-NW 339 0 min 0,000 mm 1,0 UV-I 89 W/m 10,6 C 16,5 C 0,0 km/h (0 Bft) 0,00 %
09.07.2015 18:15 16,6 C 68 % 1017,9 hPa 0,0 l/m 3,2 km/h (1 Bft) SW 232 0 min 0,000 mm 1,0 UV-I 75 W/m 10,7 C 16,6 C 4,0 km/h (1 Bft) 0,00 %
09.07.2015 18:20 16,6 C 68 % 1017,9 hPa 0,0 l/m 7,9 km/h (2 Bft) W-SW 256 0 min 0,000 mm 0,0 UV-I 110 W/m 10,7 C 15,8 C 11,9 km/h (2 Bft) 0,00 %
09.07.2015 18:25 16,4 C 68 % 1018,3 hPa 0,0 l/m 0,0 km/h (0 Bft) NO 47 0 min 0,000 mm 0,0 UV-I 84 W/m 10,5 C 16,4 C 0,0 km/h (0 Bft) 0,00 %
09.07.2015 18:30 16,0 C 71 % 1018,4 hPa 0,3 l/m 0,4 km/h (0 Bft) N-NW 339 0 min 0,000 mm 0,0 UV-I 55 W/m 10,7 C 16,0 C 4,0 km/h (1 Bft) 0,00 %
09.07.2015 18:35 15,1 C 79 % 1018,7 hPa 0,3 l/m 6,5 km/h (2 Bft) SW 218 0 min 0,000 mm 0,0 UV-I 47 W/m 11,5 C 15,1 C 7,9 km/h (2 Bft) 0,00 %
09.07.2015 18:40 14,2 C 83 % 1019,1 hPa 0,3 l/m 1,8 km/h (1 Bft) N-NW 333 0 min 0,000 mm 0,0 UV-I 83 W/m 11,4 C 14,2 C 4,0 km/h (1 Bft) 0,00 %
09.07.2015 18:45 13,7 C 84 % 1019,0 hPa 0,0 l/m 0,0 km/h (0 Bft) N-NO 12 0 min 0,000 mm 0,0 UV-I 169 W/m 11,0 C 13,7 C 0,0 km/h (0 Bft) 0,00 %
09.07.2015 18:50 13,3 C 85 % 1019,1 hPa 0,3 l/m 0,0 km/h (0 Bft) N 354 0 min 0,000 mm 0,0 UV-I 58 W/m 10,8 C 13,3 C 0,0 km/h (0 Bft) 0,00 %
09.07.2015 18:55 13,1 C 86 % 1019,0 hPa 0,0 l/m 0,4 km/h (0 Bft) N-NO 29 0 min 0,000 mm 0,0 UV-I 110 W/m 10,8 C 13,1 C 4,0 km/h (1 Bft) 0,00 %
09.07.2015 19:00 13,0 C 87 % 1019,0 hPa 0,0 l/m 0,0 km/h (0 Bft) N-NO 20 0 min 0,000 mm 1,0 UV-I 48 W/m 10,9 C 13,0 C 0,0 km/h (0 Bft) 0,00 %
09.07.2015 19:05 13,1 C 87 % 1018,8 hPa 0,0 l/m 0,0 km/h (0 Bft) N 9 0 min 0,000 mm 1,0 UV-I 30 W/m 11,0 C 13,1 C 0,0 km/h (0 Bft) 0,00 %
09.07.2015 19:10 13,1 C 87 % 1018,9 hPa 0,0 l/m 0,0 km/h (0 Bft) NO 52 0 min 0,000 mm 1,0 UV-I 22 W/m 11,0 C 13,1 C 0,0 km/h (0 Bft) 0,00 %
09.07.2015 19:15 13,3 C 86 % 1018,7 hPa 0,0 l/m 0,0 km/h (0 Bft) N-NO 28 0 min 0,000 mm 0,0 UV-I 17 W/m 11,0 C 13,3 C 0,0 km/h (0 Bft) 0,00 %
09.07.2015 19:20 13,4 C 86 % 1018,8 hPa 0,0 l/m 0,4 km/h (0 Bft) W-NW 294 0 min 0,000 mm 0,0 UV-I 5 W/m 11,1 C 13,4 C 4,0 km/h (1 Bft) 0,00 %
09.07.2015 19:25 13,4 C 85 % 1018,8 hPa 0,0 l/m 0,0 km/h (0 Bft) N-NO 18 0 min 0,000 mm 1,0 UV-I 2 W/m 10,9 C 13,4 C 0,0 km/h (0 Bft) 0,00 %
09.07.2015 19:30 13,5 C 85 % 1018,9 hPa 0,0 l/m 0,0 km/h (0 Bft) W-SW 255 0 min 0,000 mm 0,0 UV-I 34 W/m 11,0 C 13,5 C 0,0 km/h (0 Bft) 0,00 %
09.07.2015 19:35 13,5 C 85 % 1019,1 hPa 0,0 l/m 1,8 km/h (1 Bft) N-NW 329 0 min 0,000 mm 0,0 UV-I 68 W/m 11,0 C 13,5 C 4,0 km/h (1 Bft) 0,00 %
09.07.2015 19:40 13,5 C 85 % 1019,2 hPa 0,0 l/m 0,4 km/h (0 Bft) N 355 0 min 0,000 mm 0,0 UV-I 69 W/m 11,0 C 13,5 C 4,0 km/h (1 Bft) 0,00 %
09.07.2015 19:45 13,6 C 86 % 1018,9 hPa 0,0 l/m 0,0 km/h (0 Bft) O 96 0 min 0,000 mm 0,0 UV-I 63 W/m 11,3 C 13,6 C 0,0 km/h (0 Bft) 0,00 %
09.07.2015 19:50 13,6 C 86 % 1018,9 hPa 0,0 l/m 0,4 km/h (0 Bft) SW 223 0 min 0,000 mm 0,0 UV-I 46 W/m 11,3 C 13,6 C 4,0 km/h (1 Bft) 0,00 %
09.07.2015 19:55 13,5 C 86 % 1019,0 hPa 0,0 l/m 0,4 km/h (0 Bft) N-NO 29 0 min 0,000 mm 0,0 UV-I 23 W/m 11,2 C 13,5 C 4,0 km/h (1 Bft) 0,00 %
09.07.2015 20:00 13,5 C 86 % 1019,1 hPa 0,0 l/m 0,0 km/h (0 Bft) NO 56 0 min 0,000 mm 0,0 UV-I 10 W/m 11,2 C 13,5 C 0,0 km/h (0 Bft) 0,00 %
09.07.2015 20:05 13,5 C 87 % 1019,2 hPa 0,0 l/m 0,0 km/h (0 Bft) N 355 0 min 0,000 mm 0,0 UV-I 19 W/m 11,4 C 13,5 C 0,0 km/h (0 Bft) 0,00 %
09.07.2015 20:10 13,6 C 85 % 1019,3 hPa 0,0 l/m 4,3 km/h (1 Bft) N-NW 333 0 min 0,000 mm 0,0 UV-I 3 W/m 11,1 C 13,6 C 7,9 km/h (2 Bft) 0,00 %
09.07.2015 20:15 13,8 C 84 % 1019,3 hPa 0,0 l/m 0,0 km/h (0 Bft) NO 54 0 min 0,000 mm 0,0 UV-I 0 W/m 11,1 C 13,8 C 0,0 km/h (0 Bft) 0,00 %
09.07.2015 20:20 13,9 C 82 % 1019,2 hPa 0,0 l/m 0,0 km/h (0 Bft) O-NO 65 0 min 0,000 mm 0,0 UV-I 0 W/m 10,9 C 13,9 C 0,0 km/h (0 Bft) 0,00 %
09.07.2015 20:25 14,0 C 82 % 1019,3 hPa 0,0 l/m 0,0 km/h (0 Bft) N-NO 24 0 min 0,000 mm 0,0 UV-I 0 W/m 11,0 C 14,0 C 0,0 km/h (0 Bft) 0,00 %
09.07.2015 20:30 14,0 C 82 % 1019,6 hPa 0,0 l/m 0,0 km/h (0 Bft) N-NW 344 0 min 0,000 mm 0,0 UV-I 0 W/m 11,0 C 14,0 C 0,0 km/h (0 Bft) 0,00 %
09.07.2015 20:35 14,0 C 83 % 1019,4 hPa 0,0 l/m 0,4 km/h (0 Bft) N 349 0 min 0,000 mm 0,0 UV-I 0 W/m 11,2 C 14,0 C 4,0 km/h (1 Bft) 0,00 %
09.07.2015 20:40 13,9 C 83 % 1019,4 hPa 0,0 l/m 0,4 km/h (0 Bft) NW 309 0 min 0,000 mm 0,0 UV-I 0 W/m 11,1 C 13,9 C 4,0 km/h (1 Bft) 0,00 %
09.07.2015 20:45 13,9 C 82 % 1019,7 hPa 0,0 l/m 4,3 km/h (1 Bft) W-NW 290 0 min 0,000 mm 0,0 UV-I 0 W/m 10,9 C 13,9 C 7,9 km/h (2 Bft) 0,00 %
09.07.2015 20:50 13,9 C 82 % 1019,8 hPa 0,0 l/m 1,8 km/h (1 Bft) W-SW 252 0 min 0,000 mm 0,0 UV-I 0 W/m 10,9 C 13,9 C 4,0 km/h (1 Bft) 0,00 %
09.07.2015 20:55 13,8 C 82 % 1020,0 hPa 0,0 l/m 0,0 km/h (0 Bft) O-NO 63 0 min 0,000 mm 0,0 UV-I 0 W/m 10,8 C 13,8 C 0,0 km/h (0 Bft) 0,00 %
09.07.2015 21:00 13,8 C 82 % 1019,8 hPa 0,0 l/m 0,7 km/h (0 Bft) W-SW 256 0 min 0,000 mm 0,0 UV-I 0 W/m 10,8 C 13,8 C 4,0 km/h (1 Bft) 0,00 %
09.07.2015 21:05 13,7 C 82 % 1020,0 hPa 0,0 l/m 0,0 km/h (0 Bft) NO 53 0 min 0,000 mm 0,0 UV-I 0 W/m 10,7 C 13,7 C 0,0 km/h (0 Bft) 0,00 %
09.07.2015 21:10 13,6 C 82 % 1020,3 hPa 0,0 l/m 0,0 km/h (0 Bft) O-NO 76 0 min 0,000 mm 0,0 UV-I 0 W/m 10,6 C 13,6 C 0,0 km/h (0 Bft) 0,00 %
09.07.2015 21:15 13,5 C 82 % 1020,0 hPa 0,0 l/m 1,8 km/h (1 Bft) N 350 0 min 0,000 mm 0,0 UV-I 0 W/m 10,5 C 13,5 C 4,0 km/h (1 Bft) 0,00 %
09.07.2015 21:20 13,4 C 82 % 1020,3 hPa 0,0 l/m 0,4 km/h (0 Bft) NO 56 0 min 0,000 mm 0,0 UV-I 0 W/m 10,4 C 13,4 C 4,0 km/h (1 Bft) 0,00 %
09.07.2015 21:25 13,3 C 83 % 1020,5 hPa 0,0 l/m 0,0 km/h (0 Bft) NO 50 0 min 0,000 mm 0,0 UV-I 0 W/m 10,5 C 13,3 C 0,0 km/h (0 Bft) 0,00 %
09.07.2015 21:30 13,2 C 83 % 1020,5 hPa 0,0 l/m 2,2 km/h (1 Bft) W 276 0 min 0,000 mm 0,0 UV-I 0 W/m 10,4 C 13,2 C 4,0 km/h (1 Bft) 0,00 %
09.07.2015 21:35 13,1 C 83 % 1020,6 hPa 0,0 l/m 0,4 km/h (0 Bft) W 268 0 min 0,000 mm 0,0 UV-I 0 W/m 10,3 C 13,1 C 4,0 km/h (1 Bft) 0,00 %
09.07.2015 21:40 12,9 C 84 % 1020,9 hPa 0,0 l/m 0,0 km/h (0 Bft) NO 53 0 min 0,000 mm 0,0 UV-I 0 W/m 10,3 C 12,9 C 0,0 km/h (0 Bft) 0,00 %
09.07.2015 21:45 12,8 C 85 % 1020,8 hPa 0,0 l/m 2,2 km/h (1 Bft) N 350 0 min 0,000 mm 0,0 UV-I 0 W/m 10,3 C 12,8 C 4,0 km/h (1 Bft) 0,00 %
09.07.2015 21:50 12,7 C 85 % 1020,8 hPa 0,0 l/m 0,0 km/h (0 Bft) NO 34 0 min 0,000 mm 0,0 UV-I 0 W/m 10,2 C 12,7 C 0,0 km/h (0 Bft) 0,00 %
09.07.2015 21:55 12,6 C 86 % 1020,8 hPa 0,0 l/m 0,0 km/h (0 Bft) NO 46 0 min 0,000 mm 0,0 UV-I 0 W/m 10,3 C 12,6 C 0,0 km/h (0 Bft) 0,00 %
09.07.2015 22:00 12,5 C 86 % 1020,8 hPa 0,0 l/m 0,0 km/h (0 Bft) NO 49 0 min 0,000 mm 0,0 UV-I 0 W/m 10,2 C 12,5 C 0,0 km/h (0 Bft) 0,00 %
09.07.2015 22:05 12,4 C 86 % 1020,9 hPa 0,0 l/m 0,0 km/h (0 Bft) N-NO 13 0 min 0,000 mm 0,0 UV-I 0 W/m 10,1 C 12,4 C 0,0 km/h (0 Bft) 0,00 %
09.07.2015 22:10 12,4 C 86 % 1020,8 hPa 0,0 l/m 0,0 km/h (0 Bft) N 357 0 min 0,000 mm 0,0 UV-I 0 W/m 10,1 C 12,4 C 0,0 km/h (0 Bft) 0,00 %
09.07.2015 22:15 12,4 C 86 % 1021,1 hPa 0,0 l/m 0,0 km/h (0 Bft) NW 315 0 min 0,000 mm 0,0 UV-I 0 W/m 10,1 C 12,4 C 0,0 km/h (0 Bft) 0,00 %
09.07.2015 22:20 12,5 C 86 % 1021,1 hPa 0,0 l/m 0,0 km/h (0 Bft) NO 50 0 min 0,000 mm 0,0 UV-I 0 W/m 10,2 C 12,5 C 0,0 km/h (0 Bft) 0,00 %
09.07.2015 22:25 12,4 C 86 % 1021,0 hPa 0,0 l/m 0,0 km/h (0 Bft) NO 44 0 min 0,000 mm 0,0 UV-I 0 W/m 10,1 C 12,4 C 0,0 km/h (0 Bft) 0,00 %
09.07.2015 22:30 12,4 C 86 % 1021,1 hPa 0,0 l/m 0,0 km/h (0 Bft) NW 305 0 min 0,000 mm 0,0 UV-I 0 W/m 10,1 C 12,4 C 0,0 km/h (0 Bft) 0,00 %
09.07.2015 22:35 12,4 C 86 % 1021,2 hPa 0,0 l/m 0,0 km/h (0 Bft) NO 48 0 min 0,000 mm 0,0 UV-I 0 W/m 10,1 C 12,4 C 0,0 km/h (0 Bft) 0,00 %
09.07.2015 22:40 12,4 C 87 % 1021,1 hPa 0,0 l/m 0,0 km/h (0 Bft) NO 34 0 min 0,000 mm 0,0 UV-I 0 W/m 10,3 C 12,4 C 0,0 km/h (0 Bft) 0,00 %
09.07.2015 22:45 12,4 C 87 % 1021,1 hPa 0,0 l/m 0,0 km/h (0 Bft) N 355 0 min 0,000 mm 0,0 UV-I 0 W/m 10,3 C 12,4 C 0,0 km/h (0 Bft) 0,00 %
09.07.2015 22:50 12,3 C 87 % 1021,4 hPa 0,0 l/m 0,4 km/h (0 Bft) NO 38 0 min 0,000 mm 0,0 UV-I 0 W/m 10,2 C 12,3 C 4,0 km/h (1 Bft) 0,00 %
09.07.2015 22:55 12,2 C 88 % 1021,3 hPa 0,0 l/m 0,0 km/h (0 Bft) S 175 0 min 0,000 mm 0,0 UV-I 0 W/m 10,3 C 12,2 C 0,0 km/h (0 Bft) 0,00 %
09.07.2015 23:00 12,1 C 89 % 1021,3 hPa 0,0 l/m 0,0 km/h (0 Bft) NO 40 0 min 0,000 mm 0,0 UV-I 0 W/m 10,3 C 12,1 C 0,0 km/h (0 Bft) 0,00 %
09.07.2015 23:05 12,1 C 89 % 1021,5 hPa 0,0 l/m 0,0 km/h (0 Bft) S-SW 206 0 min 0,000 mm 0,0 UV-I 0 W/m 10,3 C 12,1 C 0,0 km/h (0 Bft) 0,00 %
09.07.2015 23:10 12,1 C 89 % 1021,7 hPa 0,0 l/m 0,0 km/h (0 Bft) N 356 0 min 0,000 mm 0,0 UV-I 0 W/m 10,3 C 12,1 C 0,0 km/h (0 Bft) 0,00 %
09.07.2015 23:15 12,2 C 89 % 1021,5 hPa 0,0 l/m 0,0 km/h (0 Bft) NO 42 0 min 0,000 mm 0,0 UV-I 0 W/m 10,4 C 12,2 C 0,0 km/h (0 Bft) 0,00 %
09.07.2015 23:20 12,2 C 88 % 1021,5 hPa 0,0 l/m 0,0 km/h (0 Bft) N 356 0 min 0,000 mm 0,0 UV-I 0 W/m 10,3 C 12,2 C 0,0 km/h (0 Bft) 0,00 %
09.07.2015 23:25 12,2 C 88 % 1021,5 hPa 0,0 l/m 2,2 km/h (1 Bft) N 350 0 min 0,000 mm 0,0 UV-I 0 W/m 10,3 C 12,2 C 7,9 km/h (2 Bft) 0,00 %
09.07.2015 23:30 12,2 C 88 % 1021,6 hPa 0,0 l/m 0,7 km/h (0 Bft) N-NW 339 0 min 0,000 mm 0,0 UV-I 0 W/m 10,3 C 12,2 C 4,0 km/h (1 Bft) 0,00 %
09.07.2015 23:35 12,3 C 88 % 1021,7 hPa 0,0 l/m 0,0 km/h (0 Bft) NO 36 0 min 0,000 mm 0,0 UV-I 0 W/m 10,4 C 12,3 C 0,0 km/h (0 Bft) 0,00 %
09.07.2015 23:40 12,3 C 88 % 1021,9 hPa 0,0 l/m 2,9 km/h (1 Bft) W 277 0 min 0,000 mm 0,0 UV-I 0 W/m 10,4 C 12,3 C 7,9 km/h (2 Bft) 0,00 %
09.07.2015 23:45 12,3 C 88 % 1021,9 hPa 0,0 l/m 0,4 km/h (0 Bft) NW 326 0 min 0,000 mm 0,0 UV-I 0 W/m 10,4 C 12,3 C 4,0 km/h (1 Bft) 0,00 %
09.07.2015 23:50 12,3 C 88 % 1022,0 hPa 0,0 l/m 0,0 km/h (0 Bft) NO 39 0 min 0,000 mm 0,0 UV-I 0 W/m 10,4 C 12,3 C 0,0 km/h (0 Bft) 0,00 %
09.07.2015 23:55 12,3 C 88 % 1021,9 hPa 0,0 l/m 0,0 km/h (0 Bft) NO 42 0 min 0,000 mm 0,0 UV-I 0 W/m 10,4 C 12,3 C 0,0 km/h (0 Bft) 0,00 %
_ Min-Zeit 23:00 14:05 00:20 - 00:05 - - - - - - 12:20 16:00 00:05 00:00
Minimum _ 12,1 C 49 % 1013,3 hPa - 0,0 km/h (0 Bft) - - - - - - 9,1 C 11,4 C 0,0 km/h (0 Bft) 0,00 %
_ Max-Zeit 14:40 00:00 23:50 15:00 16:00 - - 06:25 00:00 13:20 13:35 01:55 14:40 15:20 00:00
Maximum _ 21,2 C 93 % 1022,0 hPa 0,3 l/m 18,4 km/h
S-SW (3 Bft)
- - 5 min 0,000 mm 6,0 UV-I 1053 W/m 13,8 C 21,2 C 24,1 km/h
W-SW (4 Bft)
0,00 %
Durchschnitt _ 15,9 C 75 % 1016,3 hPa #1,5 l/m 2,3 km/h (1 Bft) W-SW - #5:10 h #0,000 mm 1,9 UV-I 289 W/m 11,2 C 15,8 C 4,6 km/h (1 Bft) 0,00 %